Weather History for Lubbock, TX

Change the Weather History Date:

Wednesday, December 19, 2012

  Actual Average Record
Temperature  
Mean Temperature 48 °F 40 °F  
Max Temperature 66 °F 53 °F 76 °F (1921)
Min Temperature 30 °F 26 °F 0 °F (1924)
Degree Days  
Heating Degree Days 17 25  
Month to date heating degree days 323 450  
Since 1 July heating degree days 844 1092  
Cooling Degree Days 0 0  
Month to date cooling degree days 0 0  
Year to date cooling degree days 2322 1804  
Moisture  
Dew Point 20 °F    
Average Humidity 38    
Maximum Humidity 56    
Minimum Humidity 19    
Precipitation  
Precipitation T in 0.03 in 1.22 in (1918)
Month to date precipitation 0.16 0.49  
Year to date precipitation 10.91 18.85  
Snow  
Snow 0.00 in 0.10 in 0.20 in (1983)
Month to date snowfall 0.2 1.3  
Since 1 July snowfall 0.2 2.2  
Snow Depth 0.00 in    
Sea Level Pressure  
Sea Level Pressure 29.68 in    
Wind  
Wind Speed 22 mph (West)    
Max Wind Speed 55 mph    
Max Gust Speed 66 mph    
Visibility 4 miles    
Events Rain    
T = Trace of Precipitation, MM = Missing Value Source: NWS Daily Summary

Daily Weather History Graph

Daily Weather History Graph

Search for Another Location

Airport:

Trip Planner

Search our weather history database for the weather conditions in past years. The results will help you decide how hot, cold, wet, or windy it might be!

Date:

Astronomy

Dec. 19, 2012 Rise Set
Actual Time 7:47 AM CST 5:42 PM CST
Civil Twilight 7:19 AM CST 6:09 PM CST
Nautical Twilight 6:48 AM CST 6:41 PM CST
Astronomical Twilight 6:17 AM CST 7:11 PM CST
Moon 12:15 PM CST (12/19) No Moon Set
Length of Visible Light 10h 50m
Length of Day
9h 55m
Waxing Crescent, 45% of the Moon is Illuminated
Dec 19
Waxing Crescent
Dec 19
First Quarter
Dec 28
Full
Jan 4
Last Quarter
Jan 11
New

Hourly Weather History & Observations

Time (CST) Temp. Windchill Dew Point Humidity Pressure Visibility Wind Dir Wind Speed Gust Speed Precip Events Conditions
12:53 AM 57.9 °F - 19.0 °F 22% 29.61 in 10.0 mi SSW 12.7 mph - N/A   Overcast
1:53 AM 57.0 °F - 19.0 °F 23% 29.60 in 10.0 mi SSW 12.7 mph - N/A   Mostly Cloudy
2:53 AM 54.0 °F - 19.0 °F 25% 29.59 in 10.0 mi SSW 6.9 mph - N/A   Mostly Cloudy
3:53 AM 51.1 °F - 21.0 °F 31% 29.58 in 10.0 mi West 5.8 mph - N/A   Mostly Cloudy
4:53 AM 48.9 °F - 21.0 °F 33% 29.56 in 10.0 mi SW 4.6 mph - N/A   Mostly Cloudy
5:53 AM 46.9 °F - 23.0 °F 39% 29.57 in 10.0 mi West 5.8 mph - N/A   Overcast
6:53 AM 48.9 °F - 21.9 °F 35% 29.58 in 10.0 mi SSW 10.4 mph - N/A   Overcast
7:53 AM 51.1 °F - 19.9 °F 29% 29.58 in 10.0 mi SW 8.1 mph - N/A   Overcast
8:53 AM 52.0 °F - 19.9 °F 28% 29.58 in 10.0 mi SW 8.1 mph - N/A   Mostly Cloudy
9:53 AM 53.1 °F - 19.9 °F 27% 29.60 in 10.0 mi WSW 9.2 mph - N/A   Mostly Cloudy
10:53 AM 55.9 °F - 19.0 °F 24% 29.58 in 10.0 mi WSW 12.7 mph - N/A   Mostly Cloudy
11:53 AM 60.1 °F - 17.1 °F 19% 29.54 in 9.0 mi SW 20.7 mph 29.9 mph N/A   Clear
12:30 PM 64.4 °F - 21.2 °F 19% 29.59 in 2.0 mi WSW 32.2 mph 43.7 mph N/A   Widespread Dust
12:34 PM 64.4 °F - 21.2 °F 19% 29.58 in 0.8 mi WSW 36.8 mph 44.9 mph N/A   Widespread Dust
12:53 PM 66.0 °F - 23.0 °F 20% 29.47 in 0.5 mi WSW 44.9 mph 55.2 mph N/A   Widespread Dust
1:00 PM 66.2 °F - 24.8 °F 21% 29.56 in 0.2 mi WSW 51.8 mph 61.0 mph N/A   Unknown
1:07 PM 64.4 °F - 26.6 °F 24% 29.56 in 0.2 mi WSW 47.2 mph 65.6 mph 0.00 in Rain Heavy Rain
1:30 PM 64.4 °F - 26.6 °F 24% 29.58 in 0.5 mi WSW 34.5 mph 50.6 mph 0.00 in   Unknown
1:37 PM 64.4 °F - 26.6 °F 24% 29.56 in 0.5 mi WSW 40.3 mph 51.8 mph 0.00 in   Unknown
1:46 PM 64.4 °F - 26.6 °F 24% 29.57 in 0.2 mi WSW 35.7 mph 56.4 mph 0.00 in   Unknown
1:53 PM 64.9 °F - 27.0 °F 24% 29.47 in 0.2 mi WSW 41.4 mph 51.8 mph 0.00 in   Unknown
2:06 PM 64.4 °F - 26.6 °F 24% 29.56 in 0.2 mi WSW 38.0 mph 49.5 mph N/A   Widespread Dust
2:53 PM 64.9 °F - 27.0 °F 24% 29.46 in 0.2 mi WSW 36.8 mph 51.8 mph N/A   Widespread Dust
3:38 PM 60.8 °F - 30.2 °F 31% 29.60 in 0.2 mi WNW 32.2 mph 46.0 mph N/A   Unknown
3:49 PM 57.2 °F - 32.0 °F 38% 29.61 in 0.2 mi WNW 36.8 mph 47.2 mph 0.00 in Rain Heavy Rain
3:53 PM 55.9 °F - 33.1 °F 42% 29.56 in 0.2 mi WNW 35.7 mph 49.5 mph 0.00 in Rain Heavy Rain
4:15 PM 53.6 °F - 28.4 °F 38% 29.66 in 0.5 mi WNW 38.0 mph 49.5 mph 0.00 in   Unknown
4:37 PM 53.6 °F - 17.6 °F 24% 29.68 in 0.2 mi WNW 36.8 mph 49.5 mph 0.00 in   Unknown
4:41 PM 53.6 °F - 15.8 °F 22% 29.68 in 0.2 mi WNW 29.9 mph 49.5 mph 0.00 in   Unknown
4:53 PM 53.1 °F - 12.9 °F 20% 29.63 in 0.2 mi West 31.1 mph 50.6 mph 0.00 in   Unknown
5:13 PM 53.6 °F - 10.4 °F 18% 29.71 in 0.5 mi WNW 33.4 mph 44.9 mph N/A   Unknown
5:35 PM 51.8 °F - 8.6 °F 18% 29.72 in 0.5 mi WNW 35.7 mph 48.3 mph N/A   Unknown
5:53 PM 51.1 °F - 10.9 °F 20% 29.69 in 0.5 mi WNW 38.0 mph 48.3 mph N/A   Unknown
6:39 PM 48.2 °F - 12.2 °F 24% 29.78 in 1.2 mi WNW 32.2 mph 47.2 mph N/A   Widespread Dust
6:46 PM 48.2 °F - 12.2 °F 24% 29.79 in 1.2 mi WNW 35.7 mph 46.0 mph N/A   Widespread Dust
6:53 PM 48.0 °F - 12.9 °F 24% 29.76 in 1.2 mi WNW 34.5 mph 46.0 mph N/A   Widespread Dust
7:13 PM 42.8 °F 31.9 °F 19.4 °F 39% 29.85 in 1.2 mi North 32.2 mph 39.1 mph N/A   Widespread Dust
7:27 PM 39.2 °F 27.0 °F 21.2 °F 49% 29.88 in 1.2 mi NNW 32.2 mph 42.6 mph N/A   Widespread Dust
7:31 PM 39.2 °F 27.6 °F 21.2 °F 49% 29.89 in 2.0 mi North 28.8 mph 42.6 mph N/A   Widespread Dust
7:38 PM 37.4 °F 24.8 °F 21.2 °F 52% 29.91 in 5.0 mi NNW 31.1 mph 36.8 mph N/A   Widespread Dust
7:53 PM 35.6 °F 22.5 °F 21.2 °F 56% 29.93 in 5.0 mi North 29.9 mph 42.6 mph N/A   Widespread Dust
8:53 PM 34.0 °F 20.3 °F 15.1 °F 46% 29.97 in 3.0 mi North 29.9 mph 41.4 mph N/A   Widespread Dust
9:53 PM 32.0 °F 17.9 °F 14.0 °F 48% 30.03 in 6.0 mi NNW 28.8 mph 42.6 mph N/A   Widespread Dust
10:53 PM 30.9 °F 16.7 °F 15.1 °F 52% 30.07 in 9.0 mi NNW 27.6 mph 35.7 mph N/A   Clear
11:53 PM 30.0 °F 16.3 °F 14.0 °F 51% 30.12 in 10.0 mi NNW 24.2 mph 31.1 mph N/A   Clear